Wind_Speed
2 5 8 5 5 5 4 5 2 5 3 9 19 4 6 3 1 3 25 31 32 29 29 30 29 28 26 26 26 27 26 24 23 21 20 19 17 17 17 17 15 14 15 14 13 13 14 14 14
4 5 6 4 5 3 2 4 2 0 5 14 12 12 4 3 4 19 39 32 32 31 32 32 31 29 27 27 26 26 24 21 21 19 18 17 16 15 14 14 14 13 14 15 16 12 12 13 13
6 3 3 4 3 3 3 4 1 11 20 9 5 8 4 3 15 38 33 36 32 32 33 32 30 29 27 26 24 23 21 19 17 16 16 15 14 13 12 11 10 11 11 11 12 13 12 13 13
10 6 6 4 1 0 3 4 1 5 5 7 15 7 7 3 28 25 35 35 31 31 32 30 29 28 26 23 20 17 15 15 14 13 14 14 12 11 9 9 8 7 8 9 9 11 12 12 13
10 5 4 4 1 4 4 5 7 3 4 12 9 5 9 19 19 28 33 32 29 29 31 30 28 26 23 20 16 13 13 13 13 12 12 11 9 9 8 7 6 6 6 7 8 9 11 12 13
5 3 4 1 3 2 1 8 5 5 12 16 16 10 4 13 22 27 30 28 26 28 28 29 26 24 21 18 14 13 13 13 12 11 9 8 7 6 5 4 5 5 5 7 8 9 10 11 13
6 3 3 3 3 1 1 9 2 9 13 6 16 5 11 23 21 27 29 26 25 25 25 26 26 24 20 17 15 14 13 12 11 9 8 7 6 5 4 2 3 3 6 6 8 9 10 13 14
5 3 2 4 5 2 8 11 17 11 3 17 18 6 12 28 25 28 28 25 25 23 22 23 24 23 21 19 17 14 12 11 10 8 7 6 5 5 3 2 3 4 6 7 7 9 10 13 15
9 3 3 5 6 5 18 5 9 7 15 10 4 20 33 32 28 28 29 27 27 26 24 23 24 23 21 20 17 14 12 11 9 9 7 7 6 6 4 4 5 5 6 6 7 9 10 12 14
6 4 8 5 7 11 15 13 13 10 17 12 23 26 34 32 30 31 33 28 26 27 26 25 25 22 21 20 17 15 14 11 9 10 8 8 7 7 7 5 7 9 8 7 8 8 10 11 12
8 6 4 3 11 26 17 10 8 20 8 26 34 34 34 33 31 31 29 24 20 23 24 24 22 21 21 20 17 15 12 14 15 14 12 11 11 10 10 12 8 9 9 7 9 9 10 10 10
5 5 11 8 16 17 16 17 9 21 11 29 26 37 38 36 36 32 29 25 22 24 21 22 21 20 19 19 18 15 10 11 15 14 13 15 14 13 9 9 9 11 8 8 9 10 9 9 10
4 3 16 19 19 20 22 13 12 11 18 27 35 38 38 37 34 31 25 21 19 21 20 21 20 17 15 17 17 17 15 12 12 15 16 18 17 15 13 5 5 6 3 5 10 9 8 9 8
5 9 14 13 15 21 15 10 7 11 24 31 36 38 39 37 35 32 28 25 22 21 20 19 19 16 14 12 15 14 15 13 12 13 13 11 11 16 14 10 15 7 5 5 8 9 9 8 9
15 10 7 5 9 6 20 4 7 23 28 30 31 37 33 35 34 30 28 27 22 20 21 16 17 15 14 12 11 13 14 15 14 10 10 11 11 14 12 11 10 7 6 4 7 7 9 9 10
6 5 6 3 9 14 3 5 6 26 28 26 32 34 38 37 34 30 28 27 23 22 19 16 16 15 15 13 12 12 13 12 11 8 6 7 9 11 8 7 7 7 4 8 8 7 8 8 11
0 8 4 6 10 5 2 3 14 28 27 27 29 36 36 39 38 34 28 28 25 22 19 17 17 16 15 13 13 13 13 11 10 10 9 8 10 10 9 9 7 7 5 5 8 9 11 9 11
5 6 3 8 15 7 5 8 14 26 24 27 28 28 33 37 41 36 32 28 27 24 20 17 16 16 16 13 13 14 14 15 14 13 12 12 13 12 10 7 6 8 7 8 11 12 12 11 10
4 1 3 8 7 7 11 9 16 25 23 21 25 27 31 38 36 36 32 28 28 26 24 19 18 19 19 18 16 15 14 15 14 11 14 14 14 16 12 10 9 6 6 7 11 11 15 12 13
0 1 5 5 8 5 7 11 12 21 26 27 28 31 36 33 31 34 32 30 29 26 25 21 19 19 20 18 14 10 11 13 12 14 15 13 15 16 16 14 12 10 7 7 8 10 15 12 13
1 3 6 5 6 4 8 6 5 8 14 22 28 34 33 36 36 35 34 32 30 29 27 24 21 19 20 16 13 13 13 14 15 15 16 15 16 17 17 15 14 13 12 10 10 13 16 14 12
4 5 7 11 8 6 5 4 7 8 11 12 23 28 33 32 32 34 35 34 31 31 29 25 24 19 18 18 16 15 13 10 9 11 9 14 16 15 16 16 13 13 12 14 13 12 14 14 13
10 1 3 3 5 6 3 3 7 8 10 11 18 28 32 29 30 33 38 36 32 31 32 26 26 23 19 20 19 17 17 16 14 11 14 11 12 10 5 11 10 13 16 13 13 16 14 13 14
1 3 7 4 3 2 4 7 4 9 24 14 18 28 33 26 24 33 37 34 33 32 32 28 27 26 21 21 20 21 18 14 15 14 11 14 12 12 9 5 6 9 12 10 9 15 19 15 17
6 6 3 4 4 6 2 3 7 4 7 9 14 9 18 23 22 28 35 32 31 33 32 30 28 28 26 24 24 21 18 15 15 15 15 10 9 7 6 9 7 5 9 12 11 12 13 19 17
4 7 5 5 3 4 4 3 4 4 8 10 17 21 25 25 27 22 22 21 26 24 25 28 32 30 31 26 24 21 18 18 17 15 15 13 12 8 5 6 6 4 3 5 9 11 15 17 20
5 2 5 6 3 2 3 4 5 3 6 11 19 23 27 29 28 31 25 16 8 10 16 23 30 35 34 29 26 25 20 19 22 19 18 16 14 9 6 7 7 5 5 7 9 9 12 15 17
3 5 3 3 2 2 4 4 4 4 5 3 7 23 23 21 23 24 18 11 11 11 7 12 29 34 37 39 30 27 22 18 23 18 21 15 14 10 7 3 1 4 5 5 6 9 11 16 18
4 3 6 4 4 5 2 4 5 7 5 8 6 3 5 17 27 26 18 14 18 13 24 13 15 20 24 28 32 29 20 24 19 17 17 13 8 7 6 3 5 8 10 10 12 13 14 14 15
3 4 4 5 3 1 3 2 5 6 6 7 7 8 13 18 24 23 22 10 16 19 19 12 9 18 23 39 38 9 18 20 16 15 14 11 7 5 7 8 10 12 13 15 15 15 16 17 19
Wind_Direction
104 81 146 114 66 66 347 319 326 96 114 148 161 159 149 54 160 176 148 158 158 154 156 159 158 153 147 142 140 136 135 134 131 129 128 125 123 120 119 117 116 114 114 110 110 117 126 128 130
293 185 89 81 82 92 296 276 104 124 156 142 131 117 68 89 116 140 149 160 159 155 156 156 156 154 149 147 143 141 141 138 136 134 130 127 125 123 119 117 120 114 115 121 123 123 134 134 133
2 134 69 70 89 124 156 322 69 103 128 114 106 85 59 99 143 145 151 159 161 159 158 157 156 156 153 148 145 145 144 142 141 135 131 128 129 129 126 123 123 127 125 124 123 132 140 150 148
12 22 59 81 155 148 220 326 133 160 94 116 111 76 66 267 138 150 152 160 163 160 161 161 160 158 155 150 149 149 152 153 151 143 137 132 133 133 136 131 127 138 144 145 143 139 148 157 161
358 42 54 49 30 253 202 256 266 304 68 108 100 96 96 143 147 152 155 163 164 162 166 167 168 165 163 161 161 162 163 159 157 152 144 141 137 137 141 141 145 152 163 167 171 169 162 164 172
22 64 47 131 262 226 328 218 258 115 113 109 104 100 62 159 148 157 160 164 168 166 169 174 176 178 180 183 182 177 174 164 163 161 153 150 149 145 146 152 156 160 171 180 180 185 180 177 182
127 85 209 223 218 12 241 184 251 119 121 97 132 85 134 152 154 155 162 167 170 171 171 174 181 185 189 193 192 181 176 171 175 179 174 180 180 169 167 161 184 190 178 185 190 193 190 189 186
177 112 145 234 175 155 152 163 141 135 72 139 130 143 160 162 158 158 162 169 176 178 181 180 182 185 188 189 190 186 189 190 194 201 204 204 209 197 194 200 255 219 199 200 202 197 198 194 191
179 73 216 208 167 125 145 131 144 146 138 145 219 164 158 161 162 158 166 173 179 183 187 189 186 185 189 190 192 195 204 207 204 215 223 228 220 227 227 239 255 236 220 211 210 206 202 198 199
148 150 202 192 164 146 162 146 170 136 146 111 110 143 164 167 167 164 171 177 186 189 190 191 194 192 193 195 202 206 209 211 220 221 220 231 232 241 240 259 266 238 224 212 216 208 206 203 207
177 184 164 137 153 145 144 126 171 148 174 157 146 160 172 177 176 177 178 184 183 188 194 196 198 200 204 205 210 214 217 233 235 235 243 246 245 244 261 261 265 228 228 220 216 209 204 204 206
87 131 135 160 149 142 142 154 142 167 192 179 174 169 175 181 181 188 186 188 189 192 198 197 201 207 209 212 211 216 231 243 238 241 250 260 260 237 267 290 244 216 231 238 225 212 200 201 189
95 156 145 149 146 140 147 145 150 189 167 169 168 171 176 183 191 194 195 193 194 194 193 197 201 203 211 215 215 219 233 245 263 257 262 269 254 234 237 237 199 208 233 236 224 202 185 185 204
128 142 132 130 111 133 126 133 117 137 161 157 165 176 182 193 195 198 200 198 204 198 194 197 199 194 200 213 215 230 241 251 283 265 258 246 235 214 214 247 221 246 245 253 215 198 197 215 221
131 110 68 92 101 106 110 47 151 164 163 164 171 183 189 200 200 209 207 206 205 199 201 196 201 198 204 216 224 228 242 254 273 271 256 227 226 193 207 221 206 242 246 215 197 215 223 221 223
82 55 124 247 145 164 68 207 219 176 166 171 183 193 200 203 209 212 213 213 209 209 201 200 205 207 209 218 233 236 236 247 258 255 219 194 187 182 198 207 212 233 257 231 220 233 241 239 244
58 171 177 162 207 153 129 176 201 185 180 185 187 199 205 211 214 214 216 217 215 212 209 204 209 210 215 221 234 237 235 235 236 232 223 226 213 214 225 235 235 242 264 262 244 254 253 249 254
213 166 211 175 201 182 196 225 171 193 191 193 202 197 203 212 219 216 216 217 218 215 213 208 212 211 219 221 230 226 228 227 228 228 225 224 222 226 231 226 237 240 264 283 264 256 242 262 255
174 285 221 209 198 153 195 201 179 191 203 208 204 209 208 216 222 218 218 217 216 219 214 210 211 207 212 213 215 221 225 215 217 219 216 222 222 226 235 233 223 232 256 279 268 239 227 242 246
16 88 262 245 171 139 162 219 186 187 207 207 208 212 215 214 212 217 215 216 217 217 215 218 218 213 211 214 225 239 239 228 225 223 225 222 223 232 237 239 233 236 243 258 241 223 225 226 236
326 232 263 194 137 47 112 326 218 194 205 213 214 221 221 219 215 214 216 215 218 218 215 217 216 216 217 215 213 226 229 230 237 237 230 232 233 233 243 246 248 242 234 224 228 237 237 242 234
323 230 272 141 125 197 136 233 270 189 203 204 209 210 215 216 217 213 213 216 218 221 217 219 222 215 210 211 211 218 226 238 249 249 241 228 234 241 253 261 256 247 238 225 220 228 241 248 253
232 199 319 156 129 110 220 100 256 141 219 210 207 206 210 202 210 215 213 218 223 222 221 220 221 223 214 210 219 220 215 216 233 237 239 234 239 225 268 283 228 239 236 234 222 228 232 245 244
1 61 39 56 93 65 198 162 246 202 217 203 200 203 207 201 210 216 215 219 225 228 227 228 226 227 218 213 220 224 219 212 233 235 241 248 236 226 241 276 272 264 242 232 221 227 231 239 247
77 63 352 0 9 227 291 120 240 22 355 237 195 131 199 203 217 217 208 214 222 229 233 232 231 239 227 222 223 222 223 226 236 239 256 260 241 249 262 272 283 281 240 247 240 230 233 237 254
172 146 156 209 207 265 6 254 326 74 26 152 166 181 189 197 209 214 221 214 215 227 238 240 239 238 235 229 231 229 229 225 235 241 247 259 266 275 271 260 258 289 274 249 252 254 254 252 256
192 179 180 108 30 62 279 297 24 61 42 97 151 171 190 199 210 226 229 220 236 272 260 263 256 242 239 231 231 228 225 232 241 241 252 253 259 258 259 264 282 288 295 274 268 275 271 272 272
125 151 56 15 164 236 296 282 214 219 171 151 164 195 197 220 225 235 243 279 285 271 284 258 264 256 249 245 232 226 211 217 238 227 242 236 243 243 241 216 318 331 335 328 297 288 282 278 277
29 23 58 119 122 156 187 274 249 212 184 197 192 162 216 248 254 261 240 261 346 330 353 317 300 267 259 315 250 225 212 214 228 231 235 229 215 212 190 271 299 310 314 312 311 300 290 285 286
101 128 125 127 219 72 137 266 264 187 217 189 201 219 233 242 252 250 242 306 351 26 30 36 313 315 360 318 331 168 219 216 201 211 196 191 202 230 258 283 292 293 292 296 298 296 290 288 288
Height
1489 1488 1488 1488 1501 1505 1517 1510 1494 1498 1501 1500 1502 1505 1509 1510 1511 1524 1518 1526 1531 1535 1539 1543 1546 1548 1550 1552 1553 1555 1556 1558 1560 1562 1563 1564 1566 1566 1567 1567 1568 1569 1570 1571 1572 1574 1574 1575 1575
1488 1488 1489 1488 1510 1522 1519 1504 1502 1498 1497 1500 1504 1505 1508 1512 1512 1513 1519 1527 1533 1537 1540 1544 1547 1550 1552 1554 1556 1557 1559 1561 1563 1564 1564 1565 1567 1568 1569 1570 1570 1571 1572 1573 1574 1574 1575 1576 1577
1490 1489 1490 1499 1515 1522 1522 1504 1501 1499 1500 1502 1506 1508 1511 1514 1513 1515 1520 1527 1534 1538 1542 1545 1549 1551 1553 1555 1557 1559 1561 1563 1565 1566 1566 1567 1568 1569 1570 1572 1572 1572 1573 1574 1575 1576 1577 1578 1579
1492 1491 1495 1508 1516 1515 1511 1505 1503 1503 1503 1504 1507 1512 1515 1515 1517 1519 1523 1529 1535 1540 1544 1547 1550 1553 1555 1557 1559 1560 1562 1564 1565 1567 1567 1568 1569 1570 1571 1572 1573 1573 1574 1575 1576 1577 1578 1579 1580
1493 1494 1507 1516 1516 1508 1507 1506 1505 1506 1504 1505 1508 1516 1519 1522 1523 1524 1527 1532 1536 1541 1545 1548 1551 1554 1556 1557 1559 1561 1563 1565 1566 1567 1568 1568 1569 1570 1572 1573 1573 1574 1575 1575 1575 1576 1577 1578 1579
1496 1500 1518 1522 1515 1506 1506 1506 1505 1506 1506 1508 1512 1516 1524 1524 1525 1527 1530 1535 1540 1543 1547 1550 1552 1554 1556 1557 1559 1561 1562 1565 1566 1567 1568 1569 1570 1570 1571 1572 1573 1574 1575 1576 1576 1576 1577 1578 1579
1500 1506 1516 1512 1511 1508 1507 1505 1505 1507 1507 1511 1512 1520 1527 1528 1530 1529 1533 1538 1542 1546 1548 1550 1553 1555 1556 1558 1560 1561 1563 1565 1566 1567 1568 1569 1570 1570 1571 1572 1572 1573 1573 1575 1575 1575 1576 1577 1578
1497 1500 1508 1507 1512 1508 1503 1504 1504 1509 1509 1512 1513 1520 1526 1528 1531 1532 1536 1540 1544 1546 1548 1550 1552 1555 1556 1559 1560 1562 1563 1565 1566 1567 1568 1569 1570 1570 1571 1571 1571 1572 1572 1573 1574 1574 1574 1575 1578
1497 1507 1514 1504 1506 1503 1501 1503 1507 1509 1510 1514 1516 1515 1522 1527 1531 1534 1538 1542 1544 1546 1548 1550 1552 1554 1556 1559 1560 1562 1563 1564 1566 1566 1567 1569 1570 1570 1570 1570 1570 1570 1571 1572 1572 1572 1572 1573 1575
1494 1506 1500 1491 1493 1497 1500 1503 1506 1510 1511 1517 1518 1522 1525 1528 1532 1533 1537 1540 1543 1545 1547 1549 1551 1554 1556 1558 1560 1561 1562 1563 1565 1565 1566 1567 1568 1569 1568 1569 1568 1568 1569 1570 1571 1571 1572 1572 1573
1488 1497 1488 1491 1490 1492 1499 1505 1508 1509 1514 1515 1515 1522 1526 1530 1534 1536 1538 1539 1539 1543 1546 1548 1551 1553 1555 1557 1559 1560 1561 1561 1562 1564 1564 1566 1567 1568 1567 1567 1567 1568 1568 1569 1570 1570 1571 1572 1572
1487 1486 1486 1490 1491 1495 1500 1505 1507 1510 1511 1513 1515 1518 1524 1530 1532 1535 1537 1539 1540 1542 1544 1547 1550 1551 1554 1556 1558 1559 1559 1560 1561 1562 1563 1564 1565 1567 1567 1566 1564 1567 1568 1568 1569 1569 1570 1572 1572
1485 1487 1487 1490 1495 1498 1501 1503 1506 1509 1511 1517 1518 1522 1525 1528 1531 1535 1537 1539 1541 1542 1543 1545 1547 1551 1553 1555 1556 1557 1557 1557 1558 1560 1561 1561 1561 1563 1566 1566 1566 1567 1567 1567 1567 1568 1569 1571 1572
1485 1488 1491 1494 1496 1500 1501 1506 1507 1513 1512 1517 1520 1524 1526 1528 1531 1535 1536 1537 1538 1541 1542 1544 1547 1549 1551 1553 1554 1555 1556 1557 1557 1557 1557 1556 1557 1559 1562 1564 1565 1566 1566 1565 1565 1567 1568 1569 1571
1483 1497 1497 1500 1500 1505 1504 1512 1511 1511 1514 1518 1522 1525 1528 1529 1531 1530 1530 1533 1536 1539 1542 1543 1546 1549 1550 1551 1552 1552 1554 1555 1555 1554 1554 1554 1556 1558 1561 1562 1563 1565 1565 1565 1564 1565 1566 1568 1569
1491 1497 1514 1503 1503 1506 1506 1523 1510 1512 1514 1518 1521 1523 1523 1525 1525 1527 1530 1533 1535 1537 1539 1542 1545 1547 1548 1548 1550 1552 1553 1553 1554 1554 1554 1554 1556 1558 1559 1560 1561 1562 1562 1564 1563 1562 1565 1566 1568
1497 1515 1511 1508 1501 1502 1507 1515 1507 1511 1514 1516 1518 1519 1520 1521 1524 1526 1528 1531 1534 1536 1538 1540 1542 1543 1545 1547 1549 1551 1551 1552 1553 1553 1553 1554 1555 1556 1557 1558 1559 1559 1559 1561 1562 1561 1561 1563 1566
1510 1511 1504 1507 1498 1500 1507 1504 1504 1509 1512 1512 1515 1518 1518 1519 1519 1522 1526 1529 1531 1533 1535 1537 1539 1540 1542 1545 1548 1548 1549 1549 1550 1551 1551 1552 1553 1554 1554 1555 1555 1555 1556 1558 1559 1559 1558 1560 1562
1492 1495 1495 1494 1490 1498 1503 1500 1502 1507 1511 1512 1512 1515 1516 1516 1518 1521 1525 1527 1529 1531 1533 1534 1535 1536 1540 1543 1545 1545 1546 1547 1548 1548 1548 1548 1549 1550 1550 1551 1551 1552 1553 1555 1556 1555 1557 1556 1560
1487 1494 1496 1486 1486 1496 1504 1502 1500 1504 1504 1507 1508 1509 1510 1515 1517 1519 1522 1525 1526 1528 1530 1532 1534 1536 1538 1541 1543 1546 1547 1547 1547 1545 1545 1546 1547 1548 1547 1548 1549 1549 1550 1552 1554 1555 1556 1555 1557
1492 1492 1491 1492 1491 1495 1503 1513 1506 1504 1505 1506 1505 1506 1509 1510 1512 1515 1518 1520 1525 1525 1526 1528 1529 1532 1536 1539 1542 1546 1548 1547 1547 1544 1542 1543 1544 1544 1545 1546 1547 1547 1547 1548 1551 1553 1553 1553 1556
1497 1479 1481 1489 1501 1521 1499 1540 1510 1503 1500 1498 1500 1501 1503 1506 1509 1512 1515 1517 1518 1519 1522 1525 1527 1527 1531 1535 1537 1538 1542 1547 1546 1546 1543 1540 1541 1543 1542 1543 1544 1545 1544 1546 1548 1550 1551 1551 1553
1486 1474 1479 1479 1499 1505 1507 1525 1512 1500 1503 1497 1494 1498 1499 1500 1504 1506 1508 1510 1513 1516 1518 1520 1524 1528 1531 1532 1534 1534 1534 1537 1539 1541 1540 1541 1541 1541 1541 1539 1539 1540 1543 1545 1546 1548 1548 1547 1546
1470 1476 1488 1497 1506 1524 1508 1519 1517 1498 1482 1488 1489 1492 1496 1502 1502 1500 1504 1509 1512 1515 1519 1523 1526 1529 1529 1530 1531 1532 1532 1534 1537 1540 1539 1539 1540 1541 1540 1540 1540 1540 1541 1542 1542 1543 1545 1544 1542
1477 1497 1528 1525 1533 1531 1508 1510 1500 1491 1488 1484 1485 1497 1501 1502 1502 1502 1500 1503 1508 1514 1516 1521 1525 1526 1528 1529 1529 1532 1536 1536 1537 1539 1538 1538 1537 1539 1540 1539 1539 1538 1538 1540 1540 1541 1541 1541 1541
1480 1491 1522 1534 1540 1524 1504 1513 1498 1491 1487 1482 1486 1490 1493 1496 1497 1500 1504 1507 1507 1509 1513 1516 1517 1520 1523 1525 1528 1535 1536 1533 1534 1535 1535 1536 1535 1536 1537 1538 1537 1536 1537 1537 1537 1537 1538 1539 1538
1480 1493 1486 1517 1523 1526 1522 1504 1493 1491 1487 1484 1485 1488 1489 1491 1491 1494 1497 1502 1512 1516 1515 1512 1513 1515 1522 1522 1524 1526 1531 1536 1533 1533 1534 1533 1535 1535 1534 1535 1535 1535 1535 1535 1535 1534 1535 1535 1535
1467 1475 1500 1514 1523 1525 1524 1515 1515 1499 1493 1489 1486 1486 1489 1491 1490 1494 1502 1500 1506 1512 1515 1513 1515 1517 1523 1528 1525 1522 1528 1526 1532 1528 1530 1531 1533 1533 1533 1532 1533 1534 1534 1534 1533 1533 1533 1532 1532
1479 1488 1497 1505 1515 1533 1537 1519 1496 1493 1491 1489 1485 1489 1491 1493 1493 1494 1496 1495 1505 1509 1512 1511 1511 1506 1507 1525 1521 1521 1523 1528 1529 1529 1530 1530 1530 1533 1531 1532 1532 1532 1534 1532 1531 1531 1530 1529 1528
1473 1483 1496 1511 1509 1521 1521 1515 1496 1492 1491 1489 1487 1488 1489 1491 1489 1490 1493 1497 1505 1506 1500 1506 1504 1502 1516 1485 1492 1511 1515 1521 1522 1529 1529 1527 1527 1528 1529 1528 1529 1529 1529 1530 1529 1527 1526 1525 1523